Regional Weather Roundup
Issued by NWS Kansas City/Pleasant Hill, MO

Home | Current Version | Previous Version | Text Only | Print | Product List | Glossary On
Versions: 1 2 3 4 5 6 7 8 9 10 11 12 13 14 15 16 17 18 19 20 21 22 23 24 25 26 27 28 29 30 31 32 33 34 35 36 37 38 39 40 41 42 43 44 45 46 47 48 49 50
000
ASUS43 KEAX 210304
RWREAX

WEATHER ROUNDUP FOR EASTERN KANSAS AND NORTHWEST MISSOURI
NATIONAL WEATHER SERVICE KANSAS CITY/PLEASANT HILL MO
900 PM CST SAT DEC 20 2014

KSZ040-057-103>105-MOZ028-029-037-043-210400-
...KANSAS CITY METROPOLITAN AREA...

CITY           SKY/WX    TMP DP  RH WIND       PRES   REMARKS
K.C. INTL      CLOUDY    36  34  92 S12       30.12S WCI  28
K.C. DOWNTOWN  PTCLDY    38  33  82 S7        30.14S WCI  33
LEES SUMMIT    CLEAR     36  32  85 S9        30.14F WCI  29
OLATHE - IXD   PTCLDY    34  32  92 S9        30.14S WCI  27
OLATHE - OJC   PTCLDY    33  32  96 S8        30.13F FOG     WCI  26
LAWRENCE       PTCLDY    35  32  88 S9        30.13S WCI  28

$$

MOZ001>008-011>017-020>025-030>033-038>040-044>046-053-054-210400-
...NORTHERN AND CENTRAL MISSOURI...

CITY           SKY/WX    TMP DP  RH WIND       PRES   REMARKS
ST. JOSEPH     MOCLDY    40  36  86 S9        30.11S WCI  34
MOSBY          PTCLDY    37  34  87 SE5       30.15S WCI  34
WARRENSBURG    PTCLDY    36  32  87 SE3       30.18R
WHITEMAN AFB   CLOUDY    38  35  86 S5        30.17F WCI  35
CLINTON        CLOUDY    43  36  75 S7        30.19S
SEDALIA        CLOUDY    41  35  79 S8        30.19F
WARSAW         NOT AVBL
MARSHALL       CLOUDY    43  37  81 S6        30.20S
CHILLICOTHE      N/A     39  35  86 S10       30.17S WCI  32
MOBERLY        CLOUDY    39  34  81 SE5       30.20S
KIRKSVILLE     CLOUDY    37  37 100 S10       30.17F FOG     WCI  30

$$

MOZ041-047>049-056>058-063>065-088>090-097-210400-
...EASTERN AND SOUTHERN MISSOURI...

CITY           SKY/WX    TMP DP  RH WIND       PRES   REMARKS
ST. LOUIS INTL CLOUDY    42  33  70 SE9       30.25S
SPIRIT OF STL  CLOUDY    41  34  76 SE3       30.23F
COLUMBIA       CLOUDY    40  36  86 S6        30.20S
JEFFERSON CITY CLOUDY    42  35  76 S7        30.22S
MEXICO         CLOUDY   N/A N/A N/A S5        30.20S
HANNIBAL       CLOUDY    39  34  81 S5        30.21R
ROLLA          CLOUDY    40  33  76 S10       30.19S WCI  33
LEBANON        CLOUDY    41  36  81 S5        30.20S
OSAGE BEACH    CLOUDY    41  34  75 S3        30.20F
SPRINGFIELD    CLOUDY    41  37  86 S6        30.18S
BRANSON        CLOUDY    41  39  93 CALM      30.21R
NEVADA         CLOUDY    41  36  81 S6        30.19S
JOPLIN         CLOUDY    42  36  79 SW14      30.19S WCI  35
WEST PLAINS    CLOUDY    41  36  82 SE3       30.22S

$$

IAZ060-094-KSZ022-034>040-054-083-096-NEZ052-066-093-210400-
...KANSAS...SOUTHEAST NEBRASKA AND IOWA...

CITY           SKY/WX    TMP DP  RH WIND       PRES   REMARKS
TOPEKA         PTCLDY    41  36  82 S7        30.11F
MANHATTAN      MOCLDY    39  36  89 SW7       30.08R WCI  34
EMPORIA        PTCLDY    36  33  89 S10       30.11F WCI  28
CHANUTE        CLEAR     36  33  89 S9        30.16S WCI  29
WICHITA        CLOUDY    43  37  79 S10       30.11S
OMAHA          CLOUDY    35  32  88 S12       30.06F FOG     WCI  27
LINCOLN        FOG       35  34  96 S8        30.04F VSB 1/2 WCI  29
FALLS CITY     CLOUDY    35  33  92 E5        30.07F FOG     WCI  31
LAMONI         FOG       36  35  96 S9        30.10F VSB 1/2 WCI  29
DES MOINES     DRIZZLE   36  33  89 SE8       30.12S FOG     WCI  30

$$




USA.gov is the U.S. government's official web portal to all federal, state and local government web resources and services.